Jackson Hawkins Field, MS

3:51 AM CDT on April 23, 2017 (GMT -0500)
Hawkins

Weather History for KHKS - October, 2012

Change the Weather History Date:

Friday, October 5, 2012

  Actual Average (KJAN) Record (KJAN)
Temperature  
Mean Temperature 72 °F -  
Max Temperature 86 °F 82 °F 96 °F (1954)
Min Temperature 61 °F 55 °F 38 °F (1987)
Cooling Degree Days 8    
Growing Degree Days 22 (Base 50)    
Moisture  
Dew Point 61 °F    
Average Humidity 71    
Maximum Humidity 93    
Minimum Humidity 38    
Precipitation  
Precipitation 0.00 in - - ()
Sea Level Pressure  
Sea Level Pressure 30.08 in    
Wind  
Wind Speed 2 mph (South)    
Max Wind Speed 7 mph    
Max Gust Speed -    
Visibility 9 miles    
Events      
Averages and records for this station are not official NWS values.
T = Trace of Precipitation, MM = Missing Value Source: NWS Daily Summary

Daily Weather History Graph

Daily Weather History Graph

Search for Another Location

Airport or City:

Trip Planner

Search our weather history database for the weather conditions in past years. The results will help you decide how hot, cold, wet, or windy it might be!

Date:

Astronomy

Oct. 05, 2012 Rise Set
Actual Time 6:57 AM CDT 6:39 PM CDT
Civil Twilight 6:33 AM CDT 7:04 PM CDT
Nautical Twilight 6:04 AM CDT 7:32 PM CDT
Astronomical Twilight 5:36 AM CDT 8:01 PM CDT
Moon 10:19 PM CDT (10/5) 11:49 AM CDT (10/5)
Length of Visible Light 12h 30m
Length of Day
11h 41m
Waning Gibbous, 74% of the Moon is Illuminated
Oct 5
Waning Gibbous
Oct 8
Last Quarter
Oct 15
New
Oct 21
First Quarter
Oct 29
Full

Hourly Weather History & Observations

Time (CDT) Temp. Heat Index Dew Point Humidity Pressure Visibility Wind Dir Wind Speed Gust Speed Precip Events Conditions
12:53 AM 64.0 °F - 61.0 °F 90% 30.16 in 8.0 mi Calm Calm - N/A   Clear
1:53 AM 64.0 °F - 61.0 °F 90% 30.16 in 8.0 mi Calm Calm - N/A   Clear
3:53 AM 63.0 °F - 60.1 °F 90% 30.14 in 7.0 mi Calm Calm - N/A   Clear
4:53 AM 62.1 °F - 59.0 °F 90% 30.14 in 8.0 mi Calm Calm - N/A   Clear
5:53 AM 61.0 °F - 59.0 °F 93% 30.14 in 7.0 mi Calm Calm - N/A   Clear
6:53 AM 61.0 °F - 59.0 °F 93% 30.15 in 6.0 mi Calm Calm - N/A   Clear
7:53 AM 63.0 °F - 61.0 °F 93% 30.15 in 6.0 mi SE 3.5 mph - N/A   Clear
8:53 AM 70.0 °F - 63.0 °F 78% 30.16 in 10.0 mi SSE 4.6 mph - N/A   Clear
9:53 AM 75.9 °F - 62.1 °F 62% 30.15 in 10.0 mi SSE 5.8 mph - N/A   Clear
10:53 AM 79.0 °F - 63.0 °F 58% 30.14 in 10.0 mi SSE 4.6 mph - N/A   Clear
12:53 PM 82.9 °F 82.8 °F 59.0 °F 44% 30.09 in 10.0 mi Variable 3.5 mph - N/A   Clear
1:53 PM 84.9 °F 84.2 °F 57.9 °F 40% 30.06 in 10.0 mi Variable 3.5 mph - N/A   Clear
2:53 PM 84.0 °F 83.5 °F 57.9 °F 41% 30.04 in 10.0 mi West 5.8 mph - N/A   Clear
3:53 PM 84.9 °F 83.9 °F 57.0 °F 38% 30.02 in 10.0 mi West 6.9 mph - N/A   Clear
4:53 PM 84.0 °F 83.3 °F 57.0 °F 40% 30.00 in 10.0 mi South 3.5 mph - N/A   Clear
5:53 PM 82.0 °F 82.1 °F 59.0 °F 45% 29.99 in 10.0 mi SW 4.6 mph - N/A   Clear
6:53 PM 73.9 °F - 63.0 °F 68% 30.00 in 10.0 mi Calm Calm - N/A   Clear
7:53 PM 72.0 °F - 63.0 °F 73% 30.00 in 8.0 mi Calm Calm - N/A   Clear
8:53 PM 70.0 °F - 63.0 °F 78% 30.00 in 9.0 mi Calm Calm - N/A   Clear
9:53 PM 68.0 °F - 63.0 °F 84% 30.01 in 10.0 mi Calm Calm - N/A   Clear
10:53 PM 66.9 °F - 63.0 °F 87% 30.02 in 10.0 mi Calm Calm - N/A   Clear
11:53 PM 66.0 °F - 63.0 °F 90% 30.01 in 9.0 mi Calm Calm - N/A   Clear